DW4554 Weather Reports


Display with metric or nautical units.
time (UTC)temp
F
wind
direction
speed
MPH
gust
MPH
rain 1hr
in
rain 24hr
in
rain mn
in
humidity
%
barometer
mb
20260507144404 68 155 2.0 6.0 0.00 0.00 0.00 56 1009.6
20260507143905 68 176 2.0 5.0 0.00 0.00 0.00 56 1009.6
20260507143404 68 215 4.0 8.0 0.00 0.00 0.00 57 1009.6
20260507142905 68 207 5.0 8.0 0.00 0.00 0.00 56 1009.6
20260507142404 67 169 3.0 7.0 0.00 0.00 0.00 57 1009.7
20260507140904 67 216 5.0 7.0 0.00 0.00 0.00 56 1009.6
20260507135905 67 227 2.0 7.0 0.00 0.00 0.00 57 1009.5
20260507135404 67 202 3.0 7.0 0.00 0.00 0.00 56 1009.6
20260507134904 67 201 2.0 5.0 0.00 0.00 0.00 56 1009.6
20260507133904 67 219 4.0 7.0 0.00 0.00 0.00 57 1009.4
20260507133404 67 211 3.0 8.0 0.00 0.00 0.00 57 1009.5
20260507132404 68 233 5.0 12.0 0.00 0.00 0.00 56 1009.6
20260507131906 68 220 6.0 9.0 0.00 0.00 0.00 55 1009.7
20260507131404 68 222 5.0 9.0 0.00 0.00 0.00 56 1009.6
20260507130904 69 224 4.0 13.0 0.00 0.00 0.00 56 1009.6
20260507130404 69 221 7.0 12.0 0.00 0.00 0.00 54 1009.6
20260507125904 69 219 6.0 12.0 0.00 0.00 0.00 55 1009.6
20260507125405 69 222 7.0 12.0 0.00 0.00 0.00 56 1009.6
20260507124905 69 209 5.0 12.0 0.00 0.00 0.00 58 1009.6
20260507124404 69 244 6.0 15.0 0.00 0.00 0.00 60 1009.7
20260507123904 69 214 7.0 13.0 0.00 0.00 0.00 59 1009.7
20260507123404 69 248 7.0 12.0 0.00 0.00 0.00 58 1009.6
20260507122904 69 225 6.0 12.0 0.00 0.00 0.00 59 1009.6
20260507122404 69 250 6.0 10.0 0.00 0.00 0.00 58 1009.5
20260507121904 69 229 7.0 13.0 0.00 0.00 0.00 59 1009.6
20260507121404 69 233 6.0 12.0 0.00 0.00 0.00 58 1009.6
20260507120904 69 223 7.0 15.0 0.00 0.00 0.00 57 1009.7
20260507115904 69 235 7.0 14.0 0.00 0.00 0.00 58 1009.7
20260507115404 69 224 7.0 15.0 0.00 0.00 0.00 59 1009.7
20260507114904 69 239 6.0 17.0 0.00 0.00 0.00 60 1009.7
20260507114404 69 234 6.0 17.0 0.00 0.00 0.00 59 1009.7
20260507113904 69 216 5.0 12.0 0.00 0.00 0.00 59 1009.7
20260507113404 69 220 6.0 12.0 0.00 0.00 0.00 59 1009.7
20260507112905 69 227 6.0 12.0 0.00 0.00 0.00 58 1009.7
20260507112404 69 216 7.0 13.0 0.00 0.00 0.00 60 1009.7
20260507111905 69 196 5.0 16.0 0.00 0.00 0.00 59 1009.7
20260507111404 68 222 4.0 12.0 0.00 0.00 0.00 62 1009.7
20260507110904 68 242 7.0 12.0 0.00 0.00 0.00 61 1009.7
20260507110408 68 238 5.0 12.0 0.00 0.00 0.00 61 1009.7
20260507105903 68 238 6.0 12.0 0.00 0.00 0.00 62 1009.7
20260507105404 68 223 6.0 12.0 0.00 0.00 0.00 61 1009.6
20260507104904 68 224 6.0 12.0 0.00 0.00 0.00 61 1009.6
20260507104405 68 248 6.0 12.0 0.00 0.00 0.00 63 1009.6
20260507103904 67 245 8.0 15.0 0.00 0.00 0.00 63 1009.5
20260507103404 67 203 6.0 14.0 0.00 0.00 0.00 64 1009.6
20260507102904 67 236 4.0 10.0 0.00 0.00 0.00 65 1009.6
20260507102404 67 218 6.0 13.0 0.00 0.00 0.00 64 1009.5
20260507101904 66 237 4.0 14.0 0.00 0.00 0.00 65 1009.5
20260507101405 67 194 8.0 16.0 0.00 0.00 0.00 64 1009.5
20260507100904 67 193 4.0 10.0 0.00 0.00 0.00 64 1009.5
20260507095904 68 200 3.0 8.0 0.00 0.00 0.00 64 1009.4
20260507095404 68 203 5.0 9.0 0.00 0.00 0.00 64 1009.4
20260507094904 68 198 5.0 9.0 0.00 0.00 0.00 64 1009.2
20260507094404 68 221 6.0 12.0 0.00 0.00 0.00 65 1009.2
20260507093405 69 186 3.0 9.0 0.00 0.00 0.00 64 1009.2
20260507092904 69 195 4.0 12.0 0.00 0.00 0.00 65 1009.1
20260507091904 68 205 3.0 9.0 0.00 0.00 0.00 66 1009.1
20260507091404 68 189 2.0 7.0 0.00 0.00 0.00 67 1009.0
20260507090904 67 241 6.0 10.0 0.00 0.00 0.00 68 1008.9
20260507090404 67 175 3.0 8.0 0.00 0.00 0.00 69 1008.9
20260507085905 66 188 1.0 6.0 0.00 0.00 0.00 70 1008.9
20260507085404 66 218 2.0 6.0 0.00 0.00 0.00 70 1008.9
20260507084404 66 201 3.0 7.0 0.00 0.00 0.00 70 1008.8
20260507083904 66 206 3.0 8.0 0.00 0.00 0.00 70 1008.8
20260507083404 66 186 3.0 7.0 0.00 0.00 0.00 71 1008.7
20260507082404 66 216 3.0 5.0 0.00 0.00 0.00 69 1008.7
20260507081905 66 205 3.0 6.0 0.00 0.00 0.00 70 1008.7
20260507081404 66 229 4.0 8.0 0.00 0.00 0.00 69 1008.6
20260507080405 65 190 0.0 3.0 0.00 0.00 0.00 69 1008.6
20260507075904 65 193 2.0 7.0 0.00 0.00 0.00 70 1008.6
20260507075404 65 228 4.0 7.0 0.00 0.00 0.00 71 1008.6
20260507074905 65 248 3.0 8.0 0.00 0.00 0.00 72 1008.6
20260507074404 65 229 5.0 10.0 0.00 0.00 0.00 71 1008.6
20260507073904 64 222 5.0 9.0 0.00 0.00 0.00 72 1008.6
20260507073404 64 246 3.0 7.0 0.00 0.00 0.00 73 1008.6
20260507072905 64 233 2.0 5.0 0.00 0.00 0.00 74 1008.6
20260507071405 62 175 1.0 5.0 0.00 0.00 0.00 75 1008.5
20260507070904 62 209 5.0 8.0 0.00 0.00 0.00 76 1008.5
20260507070404 62 192 2.0 7.0 0.00 0.00 0.00 76 1008.4
20260507065904 61 198 4.0 8.0 0.00 0.00 0.00 77 1008.4
20260507065404 61 184 3.0 5.0 0.00 0.00 0.00 77 1008.4
20260507064904 61 168 3.0 7.0 0.00 0.00 0.00 77 1008.4
20260507064404 61 203 2.0 8.0 0.00 0.00 0.00 77 1008.4
20260507063904 61 207 3.0 7.0 0.00 0.00 0.00 77 1008.4
20260507063404 61 213 2.0 6.0 0.00 0.00 0.00 77 1008.4
20260507062904 61 166 4.0 7.0 0.00 0.00 0.00 78 1008.5
20260507061905 61 152 3.0 7.0 0.00 0.00 0.00 78 1008.1
20260507061405 60 233 2.0 6.0 0.00 0.00 0.00 78 1008.0
20260507060904 60 211 2.0 3.0 0.00 0.00 0.00 79 1007.9
20260507060404 60 207 1.0 3.0 0.00 0.00 0.00 79 1007.9
20260507055919 60 207 1.0 3.0 0.00 0.00 0.00 79 1007.9
20260507055404 60 207 2.0 6.0 0.00 0.00 0.00 79 1007.8
20260507054905 60 189 1.0 5.0 0.00 0.00 0.00 79 1007.8
20260507054404 60 185 2.0 6.0 0.00 0.00 0.00 79 1007.7
20260507053904 60 206 3.0 7.0 0.00 0.00 0.00 79 1007.7
20260507053404 60 189 5.0 8.0 0.00 0.00 0.00 79 1007.7
20260507052405 60 190 3.0 7.0 0.00 0.00 0.00 79 1007.6
20260507051904 59 232 2.0 9.0 0.00 0.00 0.00 79 1007.6
20260507051405 59 213 3.0 8.0 0.00 0.00 0.00 79 1007.6
20260507050904 59 214 3.0 7.0 0.00 0.00 0.00 79 1007.5
20260507050404 59 205 2.0 6.0 0.00 0.00 0.00 79 1007.4
20260507045405 59 194 2.0 7.0 0.00 0.00 0.00 79 1007.2
20260507043905 59 188 1.0 3.0 0.00 0.00 0.00 79 1007.1
20260507043404 59 188 2.0 7.0 0.00 0.00 0.00 79 1007.1
20260507042904 59 165 1.0 5.0 0.00 0.00 0.00 79 1007.1
20260507042404 59 142 1.0 5.0 0.00 0.00 0.00 79 1007.0
20260507041905 59 138 1.0 6.0 0.00 0.00 0.00 79 1006.8
20260507041404 59 152 1.0 5.0 0.00 0.00 0.00 79 1006.8
20260507035904 60 67 1.0 3.0 0.00 0.00 0.00 79 1006.8
20260507035404 60 136 0.0 2.0 0.00 0.00 0.00 79 1006.6
20260507034905 60 136 1.0 2.0 0.00 0.00 0.00 78 1006.5
20260507034405 60 163 2.0 6.0 0.00 0.00 0.00 78 1006.5
20260507033904 60 174 2.0 5.0 0.00 0.00 0.00 78 1006.5
20260507033404 60 194 2.0 6.0 0.00 0.00 0.00 78 1006.3
20260507032904 60 117 2.0 7.0 0.00 0.00 0.00 78 1006.2
20260507032404 60 157 2.0 6.0 0.00 0.00 0.00 78 1006.2
20260507031905 60 194 2.0 6.0 0.00 0.00 0.00 78 1006.2
20260507031404 60 195 2.0 3.0 0.00 0.00 0.00 77 1006.1
20260507030904 60 207 2.0 7.0 0.00 0.00 0.00 77 1006.1
20260507030404 60 185 2.0 5.0 0.00 0.00 0.00 77 1006.2
20260507025904 60 235 3.0 7.0 0.00 0.00 0.00 77 1006.1
20260507025404 61 234 5.0 12.0 0.00 0.00 0.00 77 1006.1
20260507024405 61 118 1.0 6.0 0.00 0.00 0.00 76 1005.9
20260507023904 61 199 2.0 7.0 0.00 0.00 0.00 76 1005.9
20260507023404 61 178 2.0 9.0 0.00 0.00 0.00 76 1005.9
20260507022905 61 182 1.0 7.0 0.00 0.00 0.00 76 1005.8
20260507022404 61 219 3.0 8.0 0.00 0.00 0.00 76 1005.7
20260507020904 61 181 6.0 12.0 0.00 0.00 0.00 75 1005.5
20260507020404 61 163 6.0 12.0 0.00 0.00 0.00 74 1005.5
20260507015904 62 189 5.0 12.0 0.00 0.00 0.00 74 1005.4
20260507015405 62 183 6.0 14.0 0.00 0.00 0.00 74 1005.3
20260507014904 62 177 5.0 9.0 0.00 0.00 0.00 73 1005.3
20260507014404 62 177 3.0 10.0 0.00 0.00 0.00 73 1005.2
20260507013904 62 180 3.0 8.0 0.00 0.00 0.00 73 1005.2
20260507013404 62 185 3.0 10.0 0.00 0.00 0.00 73 1005.3
20260507012904 62 195 3.0 9.0 0.00 0.00 0.00 73 1005.3
20260507012404 62 157 2.0 7.0 0.00 0.00 0.00 73 1005.1
20260507011904 62 151 2.0 5.0 0.00 0.00 0.00 73 1005.1
20260507011405 62 136 1.0 5.0 0.00 0.00 0.00 73 1005.1
20260507010904 62 190 2.0 6.0 0.00 0.00 0.00 73 1005.0
20260507005904 62 165 3.0 8.0 0.00 0.00 0.00 73 1005.0
20260507005408 63 160 3.0 7.0 0.00 0.00 0.00 73 1004.9
20260507004405 63 160 4.0 9.0 0.00 0.00 0.00 73 1004.8
20260507003904 63 130 3.0 8.0 0.00 0.00 0.00 73 1004.7
20260507002904 63 155 3.0 8.0 0.00 0.00 0.00 73 1004.7
20260507002405 63 144 4.0 9.0 0.00 0.00 0.00 73 1004.8